Location: Unspecified
(14.2188°N, 0.0000°E)
Time: 09:26:25
(UTC+00:00)

Explorer 7 - Visible Passes

Search period start: 04 April 2026 00:00
Search period end: 14 April 2026 00:00
Orbit: 429 x 539 km, 50.2° (Epoch: 29 March)

Date Brightness Start Highest point End Pass type
(mag) Time Alt. Az. Time Alt. Az. Time Alt. Az.
4 Apr 7.4 05:01:32 10° NNW 05:04:54 47° NE 05:08:13 10° SE visible
4 Apr 6.8 18:31:37 10° SSW 18:35:39 65° SE 18:39:40 10° NE visible
5 Apr 7.6 04:35:01 13° NNW 04:37:53 41° NE 04:41:08 10° ESE visible
6 Apr 7.8 04:10:56 37° NE 04:10:56 37° NE 04:14:01 10° ESE visible
6 Apr 9.9 19:18:43 10° WNW 19:19:55 11° NW 19:21:07 10° NNW visible
7 Apr 9.8 18:51:04 10° WNW 18:52:45 12° NW 18:54:27 10° NNW visible
